Location: Finkenwalde
(53.3770°N, 14.6418°E)
Time: 05:14:52
(UTC+00:00)

Cosmos 1943 Rocket - Pass Details

Date: 05 February 2023
Orbit: 811 x 844 km, 71.0° (Epoch: 24 March)

Event Time Altitude Azimuth Distance (km) Brightness Sun altitude
Rises 16:28:11 0° 318° (NW) 3,413 5.7 -5.8°
Reaches altitude 10° 16:31:47 10° 341° (NNW) 2,478 4.7 -6.4°
Maximum altitude 16:35:03 15° 16° (NNE) 2,123 4.0 -6.8°
Drops below altitude 10° 16:38:18 10° 52° (NE) 2,474 4.1 -7.3°
Enters shadow 16:39:06 - 58° (ENE) 2,650 4.2 -7.4°
